STARLINK-32143, 60296

Orbit data source: Space-Track

STARLINK-32143, 60296 is a payload satellite owned by SpaceX/Seattle (US) in LEO that was launched on Sun, 28 Jul 2024 UTC via an FALCON 9 launch vehicle from the Air Force Eastern Test Range (AFETR). Payload-class satellites include a variety of spacecraft equipped with specific instruments for various scientific and technological missions. These include communications satellites like Starlink; space stations such as the ISS; scientific satellites like the Hubble; Earth observation satellites from companies like Planet Labs, Umbra, and HawkEye 360; GPS; miniature CubeSats for education and research; and military/defense satellites.

Loading next visibility...
Identifier
60296, 2024-132U
Orbit
LEO
Last TLE update
2 days ago
Origin
Manufacturer
SpaceX/Seattle
Mission
Operational spacecraft
Bus & Motor
STARLINK V2M, Unknown motor
Mass
730 kg wet, ~700 kg dry
Launch date (UTC)
2024-07-28 (9 months ago)
Launch vehicle
FALCON 9
Launch site
Air Force Eastern Test Range (AFETR)
Object type
Payload
Rocket body
Debris
Shape & HBR
Unknown
Radar Cross Section
Large (>1 m²)

Expand to show TLE details & history

TLE from 2 days ago
0 STARLINK-32143
1 60296U 24132U   25114.21246979 -.00000172  00000-0  63071-5 0  9991
2 60296  53.1596  96.6088 0001396  81.3699 278.7459 15.30191856 42643
Epoch: 2025-04-24T05:05Z
Definitive object data (Epoch: 2025-04-24T05:05:57.389Z)
Latitude
-0.00011°
Longitude
167.63245°
Altitude
475.994 km
Speed
7.629 km/s
True Right ascension
06h 26m 26s
True Declination
0° 00' 00"
Sunlit
Object was in daylight at TLE epoch
Visualization TLE readout
Latitude
-50.39801°
Longitude
44.67114°
Altitude
493.581 km
Speed
7.617 km/s
Apparent Right ascension
17h 25m 23s
Apparent Declination
-67° 24' 25"
Sunlit
Object is in daylight
Visualization observer readout
Local Sidereal Time
01:31:02
Azimuth
209.495° SW
Elevation
-48.245°
Doppler factor
1
Orbital elements
Apogee altitude
476.453 km
Perigee altitude
474.539 km
Semi-major axis
6,853.633 km
Eccentricity
0.0001396
Inclination
53.1596°
RAAN
96.6088°
Arg. of periapsis
81.3699°
True anomaly
278.73009°
Mean anomaly
278.7459°
Eccentric anomaly
278.73799°
Mean motion
3.82527 °/min
BSTAR
0.0000063071
Orbital period
94.11 mins
Loading maneuver chart data...
Loading SW <> Apogee altitude chart data...
Loading historical data...
Loading historical data...
Loading historical data...
Loading historical data...
Loading historical data...
Loading historical data...
Loading historical data...

STARLINK-32143 Visibility forecast

Observer location: undefined°, undefined°

Span
Click to sort rows by Start time (UTC) header in descending order
Start Az.
Max El. time (UTC)
Max El. Az.
Max El.
End time (UTC)
End Az.
5 mins2025-04-26 01:11:27.719Z232.549° WSW2025-04-26 01:13:27.719Z329.939° NNW44.872°2025-04-26 01:16:27.719Z48.626° ENE
5 mins2025-04-26 07:46:27.719Z314.562° NW2025-04-26 07:48:27.719Z24.836° NE44.507°2025-04-26 07:51:27.719Z126.253° SE
|